MOLNIYA 3-31

Last updated on Mon Jun 26 2023 00:03:02 GMT+0000 (Coordinated Universal Time)

1 17328U 87008A 23174.77838615 -.00000116 00000+0 00000+0 0 9993 2 17328 63.5372 81.4840 7237822 252.9735 22.1409 2.00558595263343
UTC large
Height (km)
Speed (km/s)
/
Latitude / Longitude
Inclination (degrees)
Orbital Period (minutes)
Azimuth
Elevation
Range (km)
Doppler Factor

Next 0 passes for location: London (51.5072 / 0.1276)

Sorry there are no passes over London.